This demonstration page uses our WeatherBlox Daily Observations layout. Learn more.

Left ArrowRight Arrow

Hourly Observations for May 13, 2017

Temp ( °F °C ) Dew Point ( °F °C ) Humidity (%) Winds ( mph kmh ) Pressure ( in mb ) Visibility ( mi km ) Precip ( " mm )
12:53 am 00:53 Clear 63 17.2 36 2.2 37 37 E 6 9 29.88 1012 10 16 0.00 0.00
1:53 am 01:53 Clear 63 17.2 36 2.2 37 37 E 8 13 29.87 1012 10 16 0.00 0.00
2:53 am 02:53 Clear 63 17.2 35 1.7 35 35 SE 9 15 29.86 1011 10 16 0.00 0.00
3:53 am 03:53 Clear 61 16.1 34 1.1 36 36 ESE 9 15 29.86 1011 10 16 0.00 0.00
4:53 am 04:53 Clear 58 14.4 34 1.1 41 41 ESE 8 13 29.86 1011 10 16 0.00 0.00
5:53 am 05:53 Clear 56 13.3 34 1.1 44 44 E 8 13 29.86 1011 10 16 0.00 0.00
6:53 am 06:53 Clear 55 12.8 34 1.1 45 45 ESE 8 13 29.87 1012 10 16 0.00 0.00
7:53 am 07:53 Sunny 59 15 35 1.7 41 41 ESE 7 11 29.88 1012 10 16 0.00 0.00
8:53 am 08:53 Sunny 66 18.9 37 2.8 34 34 SE 13 20 29.88 1012 10 16 0.00 0.00
9:53 am 09:53 Sunny 72 22.2 40 4.4 31 31 SSE 17 28 29.88 1012 10 16 0.00 0.00
10:19 am 10:19 Mostly Sunny 74 23.3 41 5 31 31 SSE 15 24 29.85 1011 10 16 0.00 0.00
10:53 am 10:53 Sunny 76 24.4 41 5 29 29 SSE 17 28 29.87 1012 10 16 0.00 0.00
11:53 am 11:53 Sunny 80 26.7 41 5 25 25 SE 16 26 29.85 1011 10 16 0.00 0.00
12:53 pm 12:53 Sunny 86 30 41 5 20 20 SE 13 20 29.83 1010 10 16 0.00 0.00
1:53 pm 13:53 Sunny 88 31.1 40 4.4 18 18 ESE 13 20 29.79 1009 10 16 0.00 0.00
2:53 pm 14:53 Sunny 91 32.8 38 3.3 15 15 SE 16 26 29.76 1008 10 16 0.00 0.00
3:53 pm 15:53 Sunny 91 32.8 34 1.1 13 13 ESE 10 17 29.74 1007 10 16 0.00 0.00
4:53 pm 16:53 undefined 91 32.8 33 0.6 13 13 undefined N/A 29.71 1006 N/A 0.00 0.00
5:53 pm 17:53 undefined 92 33.3 31 -0.6 11 11 undefined N/A 29.69 1005 N/A 0.00 0.00
6:53 pm 18:53 undefined N/A N/A N/A undefined N/A N/A N/A 0.00 0.00
7:53 pm 19:53 Sunny 89 31.7 34 1.1 14 14 SE 16 26 29.66 1004 10 16 0.00 0.00
8:53 pm 20:53 Clear 85 29.4 36 2.2 17 17 ESE 13 20 29.66 1005 10 16 0.00 0.00
9:53 pm 21:53 Clear 81 27.2 38 3.3 21 21 SE 10 17 29.67 1005 10 16 0.00 0.00
10:53 pm 22:53 Clear 80 26.7 42 5.6 26 26 SSE 13 20 29.69 1005 10 16 0.00 0.00
11:53 pm 23:53 Clear 78 25.6 46 7.8 32 32 SE 15 24 29.72 1006 10 16 0.00 0.00

Powered by AerisWeather